RH
55 58 60 66 69 70 70 78 80 71 75 72 61 60 60 59 59 59 63 66 64 66 69 68 70 71 72 72 72 74 74 76 78 77 77 79 78 78 78 77 80 79 76 75 73 72 71 72 74 71 70 72 69 66 63 61 59 57 58 55 53 51 45 45 46 46 45 43 42 40 40 39 37 36 35 37 39 40 40 39 39 39 39 41 42 44 45 46 47 49 49 50 52 51 53 54 56
52 56 60 66 67 72 72 77 79 69 73 71 61 60 60 60 61 63 67 67 65 66 67 67 69 69 70 69 69 69 72 76 75 73 72 74 74 76 77 77 77 74 72 73 72 70 69 67 68 67 64 63 61 59 57 56 55 54 55 54 53 50 46 45 46 46 45 43 41 38 37 37 37 37 37 39 41 41 41 41 40 40 42 43 45 46 46 45 47 48 47 48 50 51 52 51 52
51 53 58 63 65 71 69 70 71 63 68 68 61 61 61 63 63 64 64 63 64 65 65 67 68 68 70 71 69 66 70 76 72 71 71 71 72 74 74 73 76 73 70 69 67 66 65 63 64 63 61 58 55 54 53 52 52 52 53 53 51 48 46 45 45 45 44 42 39 37 37 38 40 39 39 41 42 41 41 41 40 42 44 45 46 47 46 45 46 47 47 48 48 48 50 50 51
50 53 55 59 64 67 64 63 61 55 60 63 61 61 61 60 60 60 60 62 63 64 65 67 69 71 72 71 68 65 65 67 68 69 70 73 72 71 70 69 72 70 67 65 63 62 60 59 60 59 58 55 52 51 52 50 49 49 49 50 48 46 45 44 44 44 42 40 39 38 38 40 41 41 41 42 41 41 41 40 42 44 45 47 47 47 47 45 46 46 47 46 45 46 46 49 50
45 52 54 57 62 62 59 54 52 53 55 60 63 60 57 55 54 55 57 59 60 61 63 65 66 68 69 69 67 63 62 62 64 66 68 71 71 69 67 66 67 66 65 62 59 59 56 55 57 55 55 53 50 50 51 50 47 46 46 46 46 46 45 43 43 42 41 41 40 40 41 42 43 44 44 43 42 41 42 43 45 48 49 49 49 49 49 48 47 47 47 46 45 45 45 47 49
40 47 52 57 57 56 57 45 39 45 49 55 60 59 55 51 51 52 53 56 57 58 60 61 61 61 63 66 65 62 63 63 61 63 65 67 69 66 63 64 65 66 65 61 57 55 54 53 54 53 52 52 51 50 50 49 47 45 44 43 43 43 43 43 43 42 41 42 41 42 43 44 45 46 44 43 43 43 44 47 49 51 51 51 51 51 51 51 51 50 49 49 48 47 46 46 48
43 46 53 56 52 54 54 39 30 33 39 47 53 57 54 49 49 49 49 51 52 54 57 58 57 59 60 62 62 60 62 61 58 59 59 61 63 62 62 62 60 63 64 61 58 53 52 52 52 50 49 52 53 51 50 49 45 43 43 43 42 42 42 42 43 42 43 43 44 45 46 46 45 44 43 43 45 45 46 48 51 51 52 52 52 52 53 53 53 53 53 51 50 49 48 46 47
48 49 54 55 53 49 39 29 29 29 33 41 45 49 47 44 45 44 47 47 47 50 53 54 55 59 58 59 60 58 59 58 56 55 54 56 58 58 59 59 56 59 61 59 56 49 48 50 50 49 48 51 51 51 50 48 44 42 42 42 43 42 42 43 44 45 45 46 47 46 46 45 44 44 44 46 46 44 46 48 50 51 51 50 51 52 54 55 53 53 54 53 52 50 49 48 48
51 53 55 56 50 39 29 25 28 30 33 35 34 37 37 38 41 42 46 45 45 47 50 52 54 59 57 55 57 57 58 57 54 52 52 53 55 56 55 56 56 56 57 55 49 45 46 48 50 49 48 49 49 49 48 46 43 42 42 42 42 42 43 44 45 46 47 48 47 46 44 44 44 46 46 46 45 44 46 48 50 52 52 52 54 56 57 58 55 53 53 54 54 53 53 51 50
56 55 54 54 45 37 33 27 26 30 32 30 30 31 34 37 40 43 45 45 45 46 48 51 53 58 55 54 56 56 57 55 52 50 51 52 53 54 52 52 54 55 56 52 46 44 44 45 47 47 47 47 46 45 45 44 43 42 41 41 42 42 44 46 47 47 46 47 46 44 43 44 45 47 47 47 46 47 49 49 52 55 56 58 62 63 63 61 58 57 56 55 55 55 56 56 54
61 56 54 52 43 39 35 27 25 28 29 28 28 29 33 36 39 41 42 42 44 45 47 52 54 54 52 54 55 54 55 54 51 49 50 50 50 53 53 51 52 53 54 50 46 45 43 41 43 45 47 47 46 45 44 43 40 41 41 41 43 44 46 46 47 46 47 47 46 45 44 45 46 47 48 49 50 52 52 51 53 55 57 62 63 64 64 62 61 61 59 58 58 58 58 60 59
60 57 58 52 40 39 35 29 26 27 29 27 25 28 31 34 40 41 40 40 41 41 44 53 54 50 49 49 50 50 52 52 51 50 49 48 50 53 53 53 52 51 54 53 48 45 43 42 42 44 46 46 45 44 42 41 39 40 40 42 44 46 47 46 46 46 47 47 47 47 46 47 47 47 48 48 51 53 53 53 54 55 58 60 57 59 62 61 61 63 62 61 62 62 61 62 62
59 57 56 48 38 37 35 30 27 28 30 26 23 26 28 32 39 40 42 40 36 36 42 51 51 49 48 47 46 46 48 50 51 51 50 49 50 52 52 54 53 49 53 56 51 45 44 45 45 46 46 44 42 42 41 42 42 41 42 44 46 47 46 45 46 46 47 47 49 49 48 48 47 47 47 46 49 51 53 55 55 56 56 54 50 52 56 57 57 60 62 61 62 65 65 64 62
58 58 48 41 39 36 34 31 31 33 28 23 21 22 25 29 34 37 41 40 36 36 41 46 48 50 48 46 45 42 44 47 48 49 51 52 51 51 52 55 54 49 49 51 49 45 45 47 48 46 44 42 40 42 43 43 44 44 44 46 47 47 45 45 46 47 48 47 48 48 46 46 45 46 47 45 45 47 52 56 55 53 50 47 46 47 49 51 52 54 55 55 57 59 60 61 61
57 58 44 38 39 36 37 35 35 37 27 23 22 20 23 25 27 33 39 41 43 41 39 42 47 51 45 42 44 42 43 44 45 47 50 53 52 52 52 52 51 49 49 49 46 45 45 46 45 42 42 42 41 44 45 44 44 44 45 46 47 45 45 45 46 47 48 48 48 47 46 45 45 47 46 44 43 45 50 53 53 50 45 43 44 44 44 44 45 46 46 45 47 48 50 53 56
57 58 52 42 39 39 41 36 34 36 28 25 22 20 21 21 27 33 36 41 45 42 38 40 46 52 47 42 43 43 43 41 43 47 49 52 52 51 51 50 49 49 52 51 48 46 46 46 43 41 43 43 44 47 47 46 44 44 44 44 45 44 45 45 46 46 46 47 47 47 45 45 46 45 43 43 43 46 48 48 49 48 43 41 42 42 43 43 43 44 44 45 45 45 46 48 50
52 56 61 50 43 44 42 39 38 36 30 26 22 23 22 22 29 33 33 36 38 37 37 41 44 49 50 44 41 42 43 40 41 46 48 50 49 50 50 49 48 47 50 52 51 48 48 47 43 42 46 47 47 48 47 46 43 42 43 43 43 43 44 45 44 45 45 46 46 45 45 45 46 44 43 43 44 47 47 45 47 47 43 43 42 41 42 42 43 44 45 47 49 50 51 51 51
44 52 60 53 47 45 42 41 40 37 34 30 25 25 22 23 27 25 28 32 31 33 39 41 40 48 54 45 37 41 43 40 40 43 45 46 47 49 48 46 46 45 45 48 49 47 48 46 41 43 47 48 48 47 46 45 41 41 42 41 42 42 42 43 43 43 45 46 44 43 44 46 47 46 45 44 45 48 47 46 46 45 43 43 42 40 39 39 40 41 43 44 48 50 51 53 54
42 49 53 51 48 44 41 41 38 39 39 35 31 29 25 24 23 21 27 29 28 32 35 37 39 51 54 39 34 40 42 39 38 39 39 41 43 44 46 45 45 45 44 45 45 45 47 44 42 45 46 43 44 46 47 45 40 40 43 42 42 42 42 42 42 43 45 45 45 45 47 48 46 45 44 42 45 48 48 46 45 43 42 41 40 39 38 38 38 39 40 42 44 45 50 53 53
43 50 53 50 45 41 40 39 38 38 39 38 35 35 31 25 21 23 30 27 27 31 32 36 42 49 46 33 33 38 40 38 36 37 37 37 40 41 43 43 43 45 44 44 44 44 45 43 42 46 45 41 42 44 45 45 41 42 45 44 43 44 44 43 43 45 47 48 47 47 50 49 44 43 41 39 42 47 49 47 44 43 41 40 38 40 41 39 41 41 42 44 44 46 51 51 48
43 50 55 52 45 42 40 38 39 37 38 40 37 37 36 28 23 25 31 29 28 32 31 35 43 44 38 31 32 35 37 37 34 35 36 38 41 41 42 42 41 43 43 43 44 44 44 43 43 45 44 41 43 44 46 46 43 46 48 46 46 46 47 46 47 48 48 49 47 46 51 49 43 44 44 42 45 51 54 50 46 43 40 38 36 40 45 43 45 47 46 48 48 49 49 45 43
42 46 52 52 46 46 42 37 40 38 38 41 37 40 40 32 27 25 31 34 33 34 30 32 40 37 32 30 31 33 35 35 33 34 38 41 42 43 43 42 40 42 42 42 44 44 43 44 44 45 44 42 44 45 48 49 46 48 50 48 49 50 49 48 49 49 47 46 45 47 51 48 44 45 47 45 47 51 54 51 48 44 42 40 36 41 46 45 49 50 47 47 47 46 46 43 43
38 44 48 47 45 46 41 35 38 38 37 40 39 43 41 34 32 25 30 37 35 35 29 32 41 33 28 29 30 32 33 33 33 34 38 40 42 43 42 40 40 41 42 42 43 44 44 44 44 44 43 40 42 45 48 49 46 49 50 48 49 51 50 49 49 49 48 44 42 47 49 47 46 46 47 46 46 49 51 51 49 46 45 43 39 43 45 45 48 47 45 46 44 43 43 42 43
35 42 45 43 42 42 38 34 35 35 36 40 39 41 39 38 37 27 31 34 31 35 28 31 41 34 29 28 28 32 32 32 32 34 35 36 39 41 38 37 39 40 42 43 43 44 45 46 43 43 43 39 39 42 45 47 47 48 49 48 49 50 50 49 49 49 49 45 41 43 45 46 47 46 47 47 47 49 50 50 50 49 49 47 44 45 46 45 46 46 47 49 45 42 43 41 41
33 39 41 41 42 38 36 33 32 32 35 38 37 37 37 39 38 30 32 31 25 31 29 31 39 36 32 28 29 32 31 32 32 32 32 32 36 38 36 37 38 40 43 44 44 44 46 47 43 42 42 38 37 39 43 47 48 47 48 47 47 49 49 49 49 48 49 48 45 42 41 46 49 47 48 47 49 50 50 49 49 52 52 49 48 48 51 49 49 52 49 49 48 43 44 42 40
31 36 37 38 39 36 35 33 31 32 32 35 35 34 36 38 38 34 34 31 25 28 31 33 35 35 34 30 29 29 30 32 31 31 31 31 35 35 36 37 38 40 43 45 44 44 45 46 43 41 39 35 37 41 44 47 47 46 46 46 46 46 46 47 47 47 48 48 48 44 41 44 47 48 49 49 50 51 51 50 49 53 53 52 52 53 55 53 53 55 48 48 51 44 44 41 37
32 35 35 35 37 37 36 31 29 30 29 31 33 33 36 35 35 37 37 32 28 28 31 34 33 34 34 32 29 26 28 30 30 30 29 30 32 33 35 35 37 38 41 43 43 44 44 45 44 41 38 35 37 43 46 46 45 44 45 45 46 45 45 46 46 45 45 46 48 45 41 41 42 46 50 51 52 52 53 54 52 52 52 51 53 54 55 52 50 52 47 49 49 42 43 40 35
31 33 34 33 36 38 34 25 24 27 27 30 33 32 34 33 33 39 40 33 30 30 31 32 32 32 32 31 27 24 26 27 28 28 27 28 29 31 32 32 34 35 37 39 40 42 42 42 43 40 38 36 36 42 46 43 41 42 43 43 45 46 45 45 45 44 43 44 46 44 40 38 38 42 48 50 51 52 51 54 54 51 51 49 51 54 50 47 48 47 45 49 48 42 43 38 35
26 27 29 31 34 33 28 21 21 26 27 30 34 33 34 34 34 38 37 33 33 32 31 31 30 31 29 27 25 24 25 25 25 26 26 29 29 30 31 31 33 33 34 36 37 38 38 39 40 39 39 35 33 39 43 40 38 40 40 41 43 43 42 42 43 43 43 43 44 40 37 37 37 38 45 47 47 51 51 51 52 50 51 51 52 53 47 47 51 49 49 53 49 42 39 35 34
23 23 24 29 32 30 25 20 22 27 28 30 33 37 37 35 33 35 33 31 34 35 33 32 32 32 29 25 24 24 24 24 24 25 26 27 29 29 29 30 31 31 32 34 36 36 35 35 36 38 39 36 32 36 41 40 38 38 38 39 40 39 39 40 40 41 42 42 42 38 34 35 34 36 42 45 45 50 52 52 52 50 50 48 49 53 48 46 51 53 55 53 44 39 37 34 33
23 24 22 26 30 34 30 21 21 28 31 30 32 39 41 35 33 34 31 28 32 36 36 34 33 33 30 26 25 24 23 23 24 25 25 26 27 27 27 29 29 30 31 33 35 36 35 34 34 35 38 37 32 32 36 38 38 38 38 39 39 39 38 39 39 40 41 41 41 39 35 33 34 38 41 43 44 46 50 52 52 52 50 44 48 55 50 46 49 55 58 50 40 37 36 34 32
23 24 24 25 27 36 36 23 21 28 31 30 31 39 44 38 34 34 29 25 29 34 37 36 33 34 33 28 24 23 23 24 25 26 25 26 27 26 26 28 28 29 30 31 33 35 35 35 34 34 36 37 32 29 30 33 34 35 37 39 40 39 38 39 39 40 41 41 42 41 41 40 38 41 39 38 41 41 45 48 49 52 49 46 52 56 52 50 50 52 52 45 38 36 36 36 33
24 25 28 29 27 34 38 26 21 28 32 31 30 38 45 41 35 32 28 25 27 31 36 37 35 36 36 32 26 22 21 23 25 25 25 26 27 26 26 27 27 27 28 30 32 33 34 34 34 34 36 36 32 29 26 27 29 30 33 36 38 39 37 38 39 40 40 40 41 41 45 46 41 39 37 35 36 37 41 45 46 47 46 48 52 52 53 52 49 46 44 39 37 36 35 33 28
28 26 28 32 30 33 37 30 23 27 33 32 29 36 46 44 36 31 28 26 27 29 33 37 37 38 38 35 30 24 19 21 23 22 23 25 25 26 26 26 27 26 28 29 31 33 34 34 35 33 34 36 33 28 24 24 27 28 30 33 35 36 37 39 40 40 40 39 41 42 45 49 45 38 33 32 33 35 39 40 42 44 45 49 52 54 54 49 44 42 38 36 34 29 27 25 22
30 29 28 32 32 31 34 34 27 27 33 33 31 35 44 46 38 31 29 29 31 30 31 35 36 38 39 38 35 29 20 18 20 21 21 22 23 24 24 25 26 27 28 29 31 34 34 34 35 32 31 35 36 30 24 24 27 28 28 32 35 34 35 39 39 39 41 41 42 44 46 48 47 41 36 33 32 34 36 36 41 46 46 46 51 57 54 45 41 38 32 30 25 20 22 22 21
29 30 29 31 32 29 31 35 31 28 32 33 32 34 40 43 38 35 33 31 33 33 32 34 35 37 39 38 36 34 26 19 19 20 20 21 21 22 22 23 24 25 27 28 31 33 33 33 34 32 27 30 35 33 28 27 31 32 32 34 37 36 35 37 37 38 40 42 42 44 48 47 44 42 40 35 31 31 32 34 42 47 45 45 48 50 45 37 32 28 24 21 19 22 22 21 23
29 29 29 29 29 29 28 33 33 29 30 33 33 33 36 37 37 38 37 33 33 33 33 33 34 36 38 37 36 35 29 21 20 19 19 20 20 22 22 22 23 24 25 27 29 31 31 30 33 31 26 25 31 35 33 32 33 36 36 36 37 37 36 35 37 38 40 42 42 43 48 50 42 36 36 33 29 28 30 34 42 44 43 43 41 36 32 27 21 19 20 18 20 24 23 22 24
28 29 29 29 28 27 26 29 33 30 30 34 34 32 34 35 36 37 38 36 33 33 34 33 32 33 36 37 35 34 30 26 25 22 19 19 19 21 23 23 24 24 25 26 28 30 29 28 30 31 28 24 26 31 33 32 33 35 37 37 36 37 39 39 38 39 40 41 41 41 43 42 36 31 29 27 25 28 32 36 40 37 34 33 28 25 23 21 19 19 20 21 23 25 23 24 22
27 29 29 29 27 27 26 26 33 33 30 34 35 34 35 35 34 35 36 37 35 34 35 34 32 32 34 36 35 34 32 31 31 28 22 21 20 21 23 23 23 24 25 26 28 29 29 27 28 30 29 26 24 27 29 30 34 36 36 37 36 36 39 41 40 40 42 41 40 41 40 35 30 29 27 25 26 30 33 32 31 28 26 25 22 22 23 23 24 22 21 22 24 24 23 24 23
26 29 28 29 27 26 26 27 32 34 31 33 35 36 36 36 36 35 36 37 36 35 34 34 33 34 34 35 35 34 31 28 30 31 26 23 23 21 22 24 24 24 25 27 29 30 29 26 25 27 29 28 25 26 27 29 32 34 36 37 37 38 39 39 40 40 41 40 38 39 40 35 32 30 28 27 28 29 27 25 25 24 23 22 21 22 23 24 25 24 25 24 22 23 23 25 25
23 27 28 29 28 25 25 29 34 36 36 37 37 37 38 38 37 36 35 36 37 36 35 34 33 34 35 35 36 36 33 28 28 31 28 24 24 22 22 24 25 25 25 28 29 29 29 26 24 25 28 28 25 26 27 29 31 32 34 35 36 37 38 38 38 38 38 37 37 37 36 34 31 27 24 24 25 23 22 22 25 25 22 20 22 23 23 24 24 24 25 25 24 25 24 23 24
21 25 27 28 27 26 25 29 35 38 39 39 38 40 38 36 36 37 36 36 36 35 34 35 35 35 36 35 35 36 36 33 29 30 30 25 23 22 22 24 25 25 25 27 28 28 29 28 25 25 27 26 24 26 28 28 29 30 31 33 33 34 34 35 35 36 38 37 36 37 35 33 29 23 20 21 24 23 22 23 23 24 24 22 23 24 23 24 25 25 24 25 27 25 23 23 23
19 23 27 27 27 27 26 27 33 38 40 39 38 40 39 37 37 38 38 37 35 35 34 34 36 37 37 36 36 35 34 33 31 30 30 27 23 21 21 23 24 25 25 26 28 28 29 29 28 27 26 25 24 25 26 26 26 27 29 30 33 34 34 35 35 35 38 37 35 33 33 34 28 23 26 25 24 24 22 21 20 22 27 26 26 26 24 24 24 25 26 26 27 25 23 24 23
18 22 25 27 27 27 27 27 31 37 40 40 39 39 41 41 40 37 37 38 36 36 36 35 35 36 37 36 36 35 32 31 30 29 30 30 28 25 23 23 24 25 26 26 28 28 28 29 31 29 25 23 23 24 24 24 25 26 26 27 31 34 35 36 33 31 34 36 36 32 32 36 30 26 32 29 24 24 22 22 21 22 27 27 28 28 26 25 25 26 27 25 24 23 23 24 24
16 20 24 25 25 27 28 28 29 34 39 40 39 39 41 43 43 39 36 36 35 35 36 37 35 35 35 36 37 35 33 32 31 29 30 32 32 30 27 26 27 27 26 27 28 28 29 30 32 30 24 22 22 22 22 21 22 24 23 23 26 29 32 34 31 27 31 34 35 34 34 38 34 27 30 29 25 26 25 24 23 24 28 30 28 27 26 27 28 28 28 24 23 24 24 23 25
13 18 23 25 24 26 29 27 27 32 38 40 39 40 41 40 40 40 37 34 33 33 34 37 37 36 37 40 43 41 35 32 32 32 33 33 33 33 31 28 28 29 29 29 29 29 30 31 33 31 24 22 22 21 20 19 21 22 21 20 21 23 26 29 31 31 33 34 34 36 36 35 34 30 29 28 26 29 31 30 31 31 32 32 29 28 29 29 30 31 30 28 28 28 25 24 27
12 16 21 24 24 23 26 26 27 32 37 39 39 39 40 38 36 36 35 33 32 34 36 39 39 36 34 38 43 46 42 36 33 34 35 35 34 33 31 30 30 31 31 31 30 30 31 32 34 32 25 22 22 21 20 20 22 22 21 21 20 22 23 25 31 35 35 35 34 35 33 30 32 34 35 35 33 34 37 40 42 40 38 36 34 33 33 32 31 31 31 31 30 31 28 27 29
12 16 20 23 23 23 26 28 29 31 33 35 36 37 38 38 34 32 32 32 33 36 39 39 38 35 33 34 36 40 44 41 34 33 35 36 36 34 31 30 31 33 33 33 32 31 32 34 36 34 26 22 23 23 22 23 24 24 22 23 22 24 25 26 31 36 36 37 36 34 34 33 35 37 39 44 44 44 46 48 48 46 44 45 42 40 39 36 34 31 33 33 31 32 31 28 30
11 14 20 24 24 27 31 31 30 30 31 33 34 35 36 34 32 31 32 33 33 34 37 36 34 33 35 34 32 33 40 43 36 32 33 34 35 35 32 31 32 33 34 34 34 34 34 35 37 36 27 22 24 24 24 25 26 26 24 24 25 26 27 27 31 36 37 38 37 37 39 42 42 40 42 46 48 47 48 49 49 49 50 50 49 48 45 42 39 37 36 35 32 32 31 28 30
10 12 19 23 24 30 33 31 31 31 30 30 31 34 36 34 32 32 33 33 34 35 36 34 31 33 36 36 36 36 37 41 40 33 30 32 35 36 35 34 33 33 34 35 34 35 36 37 38 36 28 24 26 26 26 27 28 27 26 26 27 28 29 30 31 35 38 39 37 38 44 50 50 49 50 49 45 44 46 47 48 49 50 49 49 50 48 44 42 42 43 41 37 34 31 30 31
8 9 16 24 25 28 32 30 29 31 30 30 31 33 36 36 34 33 32 33 36 37 36 34 31 32 35 35 39 41 35 36 41 36 31 32 34 37 37 36 35 34 34 34 33 34 36 38 38 35 30 27 28 29 29 31 31 29 29 28 28 29 31 32 32 37 41 40 38 40 46 53 56 57 56 51 46 44 44 47 48 49 48 46 45 45 45 43 40 41 46 46 45 42 36 32 32
9 8 14 22 23 24 28 27 27 30 31 31 31 31 33 35 34 34 33 32 34 35 33 34 33 32 35 35 35 38 34 30 33 33 31 31 32 35 35 34 34 34 34 33 32 32 33 35 36 32 28 28 31 33 33 34 34 31 31 30 28 29 32 34 35 36 39 40 41 44 46 51 56 58 56 53 51 49 48 51 51 51 49 44 43 43 44 46 40 36 42 47 49 49 45 39 34
11 10 12 16 17 21 25 26 27 30 30 29 29 29 31 31 31 32 34 33 33 32 30 32 34 33 35 35 31 32 30 24 26 29 31 31 30 31 32 32 33 34 35 35 34 33 31 32 32 27 25 27 31 34 35 36 35 32 32 30 29 29 32 36 37 36 38 41 44 45 46 49 53 54 55 56 57 57 58 59 58 58 54 47 45 45 46 50 48 43 47 50 53 54 52 47 39
12 12 10 12 17 22 25 27 29 28 28 28 26 26 28 28 28 29 32 33 31 30 29 30 32 32 33 31 28 29 28 25 28 32 31 31 30 31 32 33 33 34 36 37 35 34 31 29 29 25 23 27 31 33 35 36 35 33 32 30 29 30 32 36 39 39 41 42 43 42 45 50 52 53 58 58 58 61 63 61 59 61 60 52 53 55 51 51 53 53 55 56 58 60 57 53 47
9 11 10 12 17 22 25 27 28 27 27 28 26 25 26 25 27 29 31 33 30 27 28 30 31 31 29 28 27 28 28 30 34 33 30 30 30 31 34 34 34 34 36 37 36 34 31 29 27 24 23 26 30 33 34 36 35 34 32 30 29 31 34 37 40 43 43 41 42 43 47 53 55 56 60 57 55 60 62 57 54 59 63 57 60 68 65 61 59 57 60 62 63 64 61 57 54
6 8 12 14 14 19 24 25 25 27 28 27 27 27 25 23 26 28 30 34 31 26 27 30 29 27 26 28 29 28 27 30 32 30 28 30 30 32 34 35 35 34 35 36 36 35 32 31 28 25 24 25 27 31 34 35 35 33 32 29 28 32 35 38 40 43 44 43 44 47 50 56 58 57 58 53 50 54 55 51 48 53 60 58 62 71 71 68 64 59 63 68 68 68 66 60 56
6 5 10 15 15 16 20 23 25 27 27 26 27 27 25 24 25 26 28 32 31 27 27 28 26 23 24 27 29 28 26 27 28 28 28 29 31 32 33 35 34 33 34 35 35 34 33 32 31 28 27 25 25 28 31 32 32 32 30 28 29 32 34 38 41 42 43 44 47 51 52 56 58 56 55 51 48 48 48 49 48 49 54 54 57 64 64 64 64 61 63 68 72 73 70 63 57
8 6 6 11 16 17 19 23 25 25 23 24 27 27 26 26 25 25 26 30 31 28 26 26 25 25 25 25 27 28 28 26 26 27 28 29 30 31 33 33 33 32 33 34 33 32 31 32 32 31 30 29 28 28 29 28 27 28 27 27 30 32 33 38 41 41 42 44 49 52 52 53 55 54 53 51 48 46 46 47 46 46 49 50 53 57 58 61 64 64 64 69 75 76 70 62 58